Date String (YYYY-MM-DD hh:mm:ss) UTC,Instrument flags,absolute air pressure of the measurement (hPa),sample flow rate (lpm),inlet stack bypass flow (lpm),air temperature of the measurement (°C),ambient temperature measured by the external sensor (°C),aerosol sample conditioner tube jacket temperature (°C),OPC LED temperature (°C),internal box temperature (°C),relative humidity of the measurement (%),span deviation,mass concentration of particles derived from Lorenz-Mie calculation of OPC scattering (μg/m³),mass concentration of particles derived from Lorenz-Mie calculation of OPC scattering (μg/m³),mass concentration of particles derived from Lorenz-Mie calculation of OPC scattering (μg/m³)
DateTimeUTC,F1_M11,P_M11,Q1_M11,Q2_M11,T1_M11,T2_M11,T3_M11,T4_M11,T5_M11,U1_M11,ZSPAN_M11,X0_M11,X2_M11,X1_M11
2024-04-19 23:00:00,SystemResetWarning,0834.8,4.99,000.00,019.6,019.0,000.0,028.2,021.4,023.6,0000.0,0006.06,0004.08,0003.73
2024-04-19 23:01:00,SystemResetWarning,0834.9,4.99,000.00,019.6,019.0,000.0,028.2,021.4,023.5,0000.0,0006.03,0004.08,0003.74
2024-04-19 23:02:00,SystemResetWarning,0834.8,5.00,000.00,019.6,019.0,000.0,028.2,021.4,023.5,0000.0,0006.06,0004.09,0003.75
2024-04-19 23:03:00,SystemResetWarning,0834.7,5.00,000.00,019.6,019.1,000.0,028.2,021.4,023.5,0000.0,0006.21,0004.09,0003.75
2024-04-19 23:04:00,SystemResetWarning,0834.4,5.00,000.00,019.6,019.1,000.0,028.2,021.4,023.4,0000.0,0006.81,0004.09,0003.76
2024-04-19 23:05:00,SystemResetWarning,0834.2,5.00,000.00,019.6,019.1,000.0,028.2,021.4,023.4,0000.0,0006.86,0004.09,0003.77
2024-04-19 23:06:00,SystemResetWarning,0834.0,5.00,000.00,019.6,019.0,000.0,028.2,021.4,023.5,0000.0,0006.85,0004.09,0003.79
2024-04-19 23:07:00,SystemResetWarning,0833.9,5.00,000.00,019.6,019.0,000.0,028.2,021.4,023.5,0000.0,0006.90,0004.11,0003.80
2024-04-19 23:08:00,SystemResetWarning,0833.9,5.00,000.00,019.6,019.0,000.0,028.2,021.4,023.6,0000.0,0006.90,0004.11,0003.79
2024-04-19 23:09:00,SystemResetWarning,0834.3,5.01,000.00,019.6,019.0,000.0,028.2,021.4,023.8,0000.0,0006.93,0004.11,0003.79
2024-04-19 23:10:00,SystemResetWarning,0834.4,5.00,000.00,019.6,019.0,000.0,028.2,021.4,023.8,0000.0,0006.77,0004.09,0003.80
2024-04-19 23:11:00,SystemResetWarning,0834.4,5.00,000.00,019.6,019.0,000.0,028.1,021.4,023.8,0000.0,0006.67,0004.09,0003.81
2024-04-19 23:12:00,SystemResetWarning,0834.4,4.99,000.00,019.6,019.0,000.0,028.1,021.4,023.7,0000.0,0006.60,0004.08,0003.82
2024-04-19 23:13:00,SystemResetWarning,0834.3,5.00,000.00,019.6,019.0,000.0,028.1,021.4,023.8,0000.0,0006.83,0004.11,0003.83
2024-04-19 23:14:00,SystemResetWarning,0834.4,4.99,000.00,019.6,019.0,000.0,028.1,021.4,023.7,0000.0,0007.56,0004.13,0003.84
2024-04-19 23:15:00,SystemResetWarning,0834.5,5.00,000.00,019.6,019.0,000.0,028.1,021.4,023.7,0000.0,0007.18,0004.15,0003.85
2024-04-19 23:16:00,SystemResetWarning,0834.5,5.01,000.00,019.6,019.0,000.0,028.1,021.4,023.7,0000.0,0007.51,0004.14,0003.86
2024-04-19 23:17:00,SystemResetWarning,0834.9,5.01,000.00,019.6,019.0,000.0,028.1,021.4,023.7,0000.0,0007.65,0004.15,0003.86
2024-04-19 23:18:00,SystemResetWarning,0834.8,4.99,000.00,019.6,019.0,000.0,028.1,021.4,023.7,0000.0,0007.66,0004.16,0003.88
2024-04-19 23:19:00,SystemResetWarning,0834.6,5.00,000.00,019.6,019.0,000.0,028.1,021.4,023.8,0000.0,0007.70,0004.19,0003.89
2024-04-19 23:20:00,SystemResetWarning,0834.7,4.99,000.00,019.6,019.0,000.0,028.1,021.4,023.9,0000.0,0007.72,0004.19,0003.89
2024-04-19 23:21:00,SystemResetWarning,0834.6,4.99,000.00,019.6,019.0,000.0,028.1,021.4,023.9,0000.0,0007.79,0004.21,0003.91
2024-04-19 23:22:00,SystemResetWarning,0834.6,5.00,000.00,019.6,019.0,000.0,028.1,021.4,024.0,0000.0,0007.80,0004.22,0003.92
2024-04-19 23:23:00,SystemResetWarning,0834.5,5.00,000.00,019.6,019.0,000.0,028.1,021.4,024.7,0000.0,0007.83,0004.23,0003.93
2024-04-19 23:24:00,SystemResetWarning,0834.5,5.01,000.00,019.6,019.0,000.0,028.1,021.4,024.5,0000.0,0007.87,0004.26,0003.95
2024-04-19 23:25:00,SystemResetWarning,0834.5,5.01,000.00,019.6,019.0,000.0,028.1,021.4,024.3,0000.0,0007.48,0004.30,0003.97
2024-04-19 23:26:00,SystemResetWarning,0834.5,4.99,000.00,019.6,019.0,000.0,028.1,021.4,024.3,0000.0,0007.46,0004.35,0003.98
2024-04-19 23:27:00,SystemResetWarning,0834.6,4.99,000.00,019.6,019.0,000.0,028.1,021.4,024.2,0000.0,0007.54,0004.37,0004.00
2024-04-19 23:28:00,SystemResetWarning,0834.6,5.00,000.00,019.6,019.0,000.0,028.1,021.4,024.1,0000.0,0007.15,0004.42,0004.01
2024-04-19 23:29:00,SystemResetWarning,0834.9,5.00,000.00,019.6,019.0,000.0,028.1,021.4,024.1,0000.0,0007.32,0004.45,0004.03
2024-04-19 23:30:00,SystemResetWarning,0834.9,5.00,000.00,019.6,019.0,000.0,028.1,021.4,024.1,0000.0,0007.26,0004.44,0004.04
2024-04-19 23:31:00,SystemResetWarning,0834.7,5.00,000.00,019.6,019.0,000.0,028.1,021.4,024.2,0000.0,0007.27,0004.45,0004.06
2024-04-19 23:32:00,SystemResetWarning,0834.5,5.00,000.00,019.6,019.0,000.0,028.1,021.4,024.1,0000.0,0007.35,0004.49,0004.07
2024-04-19 23:33:00,SystemResetWarning,0834.5,5.00,000.00,019.6,019.0,000.0,028.1,021.4,024.1,0000.0,0007.36,0004.51,0004.08
2024-04-19 23:34:00,SystemResetWarning,0834.5,5.01,000.00,019.6,019.0,000.0,028.1,021.4,024.2,0000.0,0007.68,0004.50,0004.07
2024-04-19 23:35:00,SystemResetWarning,0835.0,5.01,000.00,019.6,019.0,000.0,028.1,021.4,024.2,0000.0,0007.86,0004.50,0004.07
2024-04-19 23:36:00,SystemResetWarning,0835.2,5.00,000.00,019.6,019.0,000.0,028.1,021.4,024.2,0000.0,0007.84,0004.49,0004.06
2024-04-19 23:37:00,SystemResetWarning,0834.6,5.01,000.00,019.6,019.0,000.0,028.1,021.4,024.3,0000.0,0007.69,0004.45,0004.05
2024-04-19 23:38:00,SystemResetWarning,0834.8,5.00,000.00,019.6,019.0,000.0,028.1,021.4,024.3,0000.0,0007.67,0004.44,0004.05
2024-04-19 23:39:00,SystemResetWarning,0835.1,5.00,000.00,019.6,019.0,000.0,028.1,021.4,024.3,0000.0,0008.17,0004.41,0004.04
2024-04-19 23:40:00,SystemResetWarning,0835.2,5.00,000.00,019.6,019.0,000.0,028.1,021.4,024.3,0000.0,0008.18,0004.38,0004.04
2024-04-19 23:41:00,SystemResetWarning,0835.1,5.00,000.00,019.6,019.0,000.0,028.1,021.4,024.3,0000.0,0008.46,0004.38,0004.03
2024-04-19 23:42:00,SystemResetWarning,0834.7,5.00,000.00,019.6,019.0,000.0,028.1,021.4,024.3,0000.0,0008.40,0004.37,0004.02
2024-04-19 23:43:00,SystemResetWarning,0835.2,5.00,000.00,019.6,019.0,000.0,028.1,021.4,024.3,0000.0,0008.29,0004.33,0004.02
2024-04-19 23:44:00,SystemResetWarning,0835.3,4.99,000.00,019.6,019.0,000.0,028.1,021.4,024.3,0000.0,0008.33,0004.32,0004.00
2024-04-19 23:45:00,SystemResetWarning,0835.3,5.00,000.00,019.6,019.0,000.0,028.1,021.4,024.3,0000.0,0008.00,0004.31,0003.99
2024-04-19 23:46:00,SystemResetWarning,0835.3,5.01,000.00,019.6,019.0,000.0,028.1,021.4,024.2,0000.0,0007.75,0004.29,0003.99
2024-04-19 23:47:00,SystemResetWarning,0835.4,5.00,000.00,019.6,019.0,000.0,028.1,021.4,024.2,0000.0,0007.75,0004.29,0003.99
2024-04-19 23:48:00,SystemResetWarning,0835.4,4.99,000.00,019.6,019.0,000.0,028.1,021.4,024.3,0000.0,0007.77,0004.29,0003.99
2024-04-19 23:49:00,SystemResetWarning,0835.2,4.99,000.00,019.6,019.0,000.0,028.1,021.4,024.3,0000.0,0007.75,0004.28,0003.97
2024-04-19 23:50:00,SystemResetWarning,0834.7,5.00,000.00,019.6,019.0,000.0,028.1,021.4,024.3,0000.0,0007.06,0004.27,0003.96
2024-04-19 23:51:00,SystemResetWarning,0835.1,5.00,000.00,019.6,019.0,000.0,028.1,021.4,024.3,0000.0,0006.81,0004.28,0003.96
2024-04-19 23:52:00,SystemResetWarning,0835.2,5.01,000.00,019.6,019.0,000.0,028.1,021.4,024.4,0000.0,0006.23,0004.27,0003.97
2024-04-19 23:53:00,SystemResetWarning,0835.3,5.01,000.00,019.6,019.0,000.0,028.1,021.4,024.4,0000.0,0006.16,0004.26,0003.97
2024-04-19 23:54:00,SystemResetWarning,0835.4,4.99,000.00,019.6,019.1,000.0,028.1,021.4,024.5,0000.0,0006.21,0004.27,0003.96
2024-04-19 23:55:00,SystemResetWarning,0835.0,4.99,000.00,019.6,019.1,000.0,028.1,021.4,024.5,0000.0,0006.12,0004.27,0003.96
2024-04-19 23:56:00,SystemResetWarning,0834.9,5.00,000.00,019.6,019.1,000.0,028.1,021.4,024.5,0000.0,0006.24,0004.28,0003.96
2024-04-19 23:57:00,SystemResetWarning,0834.9,5.01,000.00,019.6,019.1,000.0,028.1,021.4,024.5,0000.0,0006.39,0004.30,0003.95
2024-04-19 23:58:00,SystemResetWarning,0835.3,5.00,000.00,019.6,019.1,000.0,028.1,021.4,024.5,0000.0,0006.34,0004.29,0003.96
2024-04-19 23:59:00,SystemResetWarning,0835.4,5.00,000.00,019.6,019.1,000.0,028.1,021.4,024.5,0000.0,0006.34,0004.27,0003.95
